Flag Weather past 2 weeks in Mazari Sharif, Afghanistan

Now
46 °F

Clear.


Feels Like: 45 °F
Forecast: 53 / 75 °F
Wind: 3 mph from North

Location: Termez Airport

Current Time: Oct 31, 2014 at 11:04:01 PM

Latest Report: Oct 31, 2014 at 10:30 PM


Visibility: 4 mi

Pressure: 30.18 "Hg

Humidity: 66%

Dew point: 36 °F

Location of Mazari SharifLocation

Historic Weather in Mazari Sharif — Graph

°F

Mazari Sharif temperature yesterday

Maximum temperature yesterday: 61 °F (at 1:30 PM)
Minimum temperature yesterday: 32 °F (at 6:30 AM)
Average temperature yesterday: 48 °F

Past Weeks' High & Low Weather Summary

 TemperatureHumidityPressure
High90 °F (Oct 22, 1:00 PM)94% (Oct 21, 2:00 AM)30.54 "Hg (Oct 21, 2:00 AM)
Low32 °F (Oct 30, 6:30 AM)14% (Oct 17, 3:30 PM)29.77 "Hg (Oct 22, 5:00 PM)
Average61 °F52%30.10 "Hg
* Reported Oct 16 9:30 PM — Oct 31 9:30 PM, Mazari Sharif, Weather by CustomWeather, © 2014

Note: Actual official high and low records may vary slightly from our data, if they occured in-between our weather recording intervals... More about our weather records

Advertising

Mazari Sharif weather history for previous 24 hours

 ConditionsComfort  
Time TempWeatherWind HumidityBarometerVisibility
9:30 PM
Oct 31
48 °FPassing clouds.1 mph62%30.15 "Hg4 mi
9:00 PM46 °FPassing clouds.1 mph66%30.15 "Hg4 mi
8:30 PM50 °FPassing clouds.1 mph58%30.12 "Hg4 mi
8:00 PM48 °FPassing clouds.1 mph58%30.15 "Hg4 mi
7:30 PM50 °FPassing clouds.1 mph58%30.15 "Hg3 mi
7:00 PM52 °FPassing clouds.1 mph50%30.15 "Hg5 mi
6:30 PM54 °FPassing clouds.No wind44%30.15 "Hg4 mi
6:00 PM55 °FPassing clouds.1 mph41%30.15 "HgN/A
5:30 PM55 °FPassing clouds.3 mph41%30.15 "Hg6 mi
5:00 PM55 °FPartly sunny.3 mph38%30.12 "HgN/A
4:30 PM59 °FSunny.6 mph34%30.12 "Hg10 mi
4:00 PM59 °FSunny.6 mph31%30.12 "Hg10 mi
3:30 PM61 °FSunny.6 mph29%30.12 "Hg10 mi
3:00 PM61 °FSunny.6 mph31%30.12 "Hg10 mi
2:30 PM61 °FPassing clouds.6 mph34%30.12 "HgN/A
2:00 PM61 °FPassing clouds.3 mph34%30.12 "HgN/A
1:30 PM61 °FPassing clouds.3 mph34%30.12 "HgN/A
1:00 PM63 °FSunny.1 mph34%30.15 "Hg10 mi
12:30 PM61 °FSunny.1 mph36%30.15 "Hg10 mi
12:00 PM61 °FSunny.1 mph34%30.18 "Hg10 mi
11:30 AM61 °FSunny.1 mph34%30.18 "Hg10 mi
11:00 AM57 °FSunny.1 mph39%30.21 "Hg10 mi
10:30 AM55 °FSunny.1 mph41%30.21 "Hg10 mi
10:00 AM54 °FPassing clouds.3 mph44%30.24 "HgN/A
9:30 AM52 °FSunny.1 mph47%30.24 "Hg10 mi
9:00 AM50 °FSunny.1 mph47%30.24 "Hg10 mi
8:30 AM45 °FSunny.No wind66%30.24 "Hg10 mi
8:00 AM41 °FSunny.1 mph76%30.24 "Hg10 mi
7:30 AM37 °FClear.1 mph81%30.24 "Hg6 mi
7:00 AM34 °FClear.No wind87%30.24 "Hg4 mi
6:30 AM34 °FSunny.1 mph87%30.24 "Hg10 mi
6:00 AM34 °FClear.No wind93%30.24 "Hg10 mi
5:30 AM36 °FClear.1 mph81%30.24 "Hg10 mi
5:00 AM36 °FClear.1 mph81%30.24 "Hg10 mi
4:30 AM36 °FRain. Overcast.N/A81%30.24 "HgN/A
4:00 AM36 °FClear.1 mph81%30.24 "Hg10 mi
3:30 AM37 °FPassing clouds.3 mph75%30.24 "HgN/A
3:00 AM37 °FClear.6 mph75%30.24 "Hg10 mi
2:30 AM37 °FClear.3 mph75%30.24 "Hg10 mi
2:00 AM37 °FClear.3 mph75%30.24 "Hg10 mi
1:30 AM37 °FClear.3 mph70%30.24 "Hg10 mi
1:00 AM39 °FClear.1 mph70%30.24 "Hg10 mi
12:30 AM39 °FClear.3 mph70%30.27 "Hg10 mi
12:00 AM39 °FClear.1 mph70%30.27 "Hg10 mi
11:30 PM
Oct 30
41 °FClear.3 mph66%30.27 "Hg10 mi
11:00 PM41 °FClear.3 mph66%30.27 "Hg10 mi
Weather by CustomWeather, © 2014

See weather overviewHow to use our weather pages